QPF
0.00 0.00 0.00 0.00 0.00 0.00 0.00 0.00 0.00 0.00 0.00 0.00 0.00 0.00 0.00 0.00 0.00 0.00 0.00 0.00 0.00 0.00 0.00 0.00 0.00 0.00 0.00 0.00 0.00 0.00 0.00 0.00 0.00 0.00 0.00 0.00 0.00 0.00 0.00 0.00 0.00 0.00 0.00 0.00
0.00 0.00 0.00 0.00 0.00 0.00 0.00 0.00 0.00 0.00 0.00 0.00 0.00 0.00 0.00 0.00 0.00 0.00 0.00 0.00 0.00 0.00 0.00 0.00 0.00 0.00 0.00 0.00 0.00 0.00 0.00 0.00 0.00 0.00 0.01 0.00 0.00 0.00 0.00 0.00 0.00 0.00 0.00 0.00
0.00 0.00 0.00 0.00 0.00 0.00 0.00 0.00 0.00 0.00 0.00 0.00 0.00 0.00 0.00 0.00 0.00 0.00 0.00 0.00 0.00 0.00 0.00 0.00 0.00 0.00 0.00 0.00 0.00 0.00 0.00 0.00 0.00 0.01 0.03 0.00 0.00 0.00 0.00 0.00 0.00 0.00 0.00 0.00
0.00 0.00 0.00 0.00 0.00 0.00 0.00 0.00 0.00 0.00 0.00 0.00 0.00 0.00 0.00 0.00 0.00 0.00 0.00 0.00 0.00 0.00 0.00 0.00 0.00 0.00 0.00 0.00 0.00 0.00 0.00 0.00 0.00 0.00 0.00 0.00 0.00 0.00 0.00 0.00 0.00 0.00 0.00 0.00
0.00 0.00 0.00 0.00 0.00 0.00 0.00 0.00 0.00 0.00 0.00 0.00 0.00 0.00 0.00 0.00 0.00 0.00 0.00 0.00 0.00 0.00 0.00 0.00 0.00 0.00 0.00 0.00 0.00 0.00 0.00 0.00 0.00 0.00 0.00 0.00 0.00 0.00 0.00 0.00 0.00 0.00 0.00 0.00
0.00 0.00 0.00 0.00 0.00 0.00 0.00 0.00 0.00 0.00 0.00 0.00 0.00 0.00 0.00 0.00 0.00 0.00 0.00 0.00 0.00 0.00 0.00 0.00 0.00 0.00 0.00 0.00 0.00 0.00 0.00 0.00 0.00 0.00 0.00 0.02 0.02 0.03 0.07 0.07 0.01 0.00 0.00 0.00
0.00 0.00 0.00 0.00 0.00 0.00 0.00 0.00 0.00 0.00 0.00 0.00 0.00 0.00 0.00 0.00 0.00 0.00 0.00 0.00 0.00 0.00 0.00 0.00 0.00 0.00 0.00 0.00 0.00 0.00 0.00 0.00 0.00 0.11 0.35 0.47 0.31 0.19 0.17 0.12 0.04 0.00 0.00 0.00
0.00 0.00 0.00 0.00 0.00 0.00 0.00 0.00 0.00 0.00 0.00 0.00 0.00 0.00 0.00 0.00 0.00 0.00 0.00 0.00 0.00 0.00 0.00 0.00 0.01 0.02 0.01 0.00 0.00 0.00 0.03 0.27 0.28 0.34 0.35 0.28 0.26 0.20 0.15 0.15 0.12 0.07 0.04 0.02
0.00 0.00 0.00 0.00 0.00 0.00 0.00 0.00 0.00 0.00 0.00 0.00 0.00 0.00 0.00 0.00 0.00 0.00 0.01 0.01 0.03 0.03 0.03 0.05 0.08 0.12 0.06 0.01 0.00 0.02 0.33 0.28 0.21 0.20 0.09 0.06 0.09 0.15 0.18 0.17 0.19 0.18 0.11 0.06
0.00 0.00 0.00 0.00 0.00 0.00 0.00 0.00 0.00 0.00 0.00 0.00 0.00 0.00 0.00 0.00 0.00 0.02 0.02 0.02 0.10 0.14 0.15 0.14 0.19 0.18 0.11 0.01 0.01 0.13 0.15 0.19 0.18 0.08 0.02 0.01 0.02 0.08 0.13 0.16 0.19 0.14 0.09 0.05
0.00 0.00 0.00 0.00 0.00 0.00 0.00 0.00 0.00 0.00 0.00 0.00 0.00 0.00 0.00 0.00 0.00 0.00 0.00 0.01 0.07 0.14 0.19 0.23 0.28 0.27 0.24 0.14 0.11 0.16 0.22 0.38 0.23 0.15 0.03 0.01 0.03 0.03 0.07 0.11 0.16 0.16 0.14 0.10
0.00 0.00 0.00 0.00 0.00 0.00 0.00 0.00 0.00 0.00 0.00 0.00 0.00 0.00 0.00 0.00 0.01 0.00 0.00 0.01 0.03 0.10 0.13 0.14 0.15 0.15 0.18 0.12 0.08 0.05 0.06 0.11 0.13 0.05 0.04 0.00 0.00 0.03 0.06 0.08 0.14 0.12 0.09 0.04
0.00 0.00 0.00 0.00 0.00 0.00 0.00 0.00 0.00 0.00 0.00 0.00 0.00 0.00 0.00 0.00 0.00 0.00 0.00 0.00 0.02 0.05 0.05 0.06 0.07 0.05 0.02 0.00 0.00 0.00 0.00 0.00 0.00 0.00 0.03 0.01 0.01 0.02 0.04 0.08 0.08 0.04 0.04 0.01
0.00 0.00 0.00 0.00 0.00 0.00 0.00 0.00 0.00 0.00 0.00 0.00 0.00 0.00 0.00 0.00 0.00 0.00 0.00 0.01 0.05 0.07 0.06 0.04 0.02 0.00 0.00 0.00 0.00 0.02 0.00 0.00 0.00 0.00 0.03 0.02 0.03 0.05 0.09 0.11 0.09 0.07 0.04 0.00
0.00 0.00 0.00 0.00 0.00 0.00 0.00 0.00 0.00 0.00 0.00 0.00 0.00 0.00 0.00 0.00 0.00 0.00 0.00 0.00 0.00 0.00 0.00 0.00 0.00 0.00 0.00 0.00 0.00 0.00 0.00 0.00 0.01 0.03 0.03 0.05 0.07 0.09 0.10 0.12 0.13 0.07 0.03 0.01
0.00 0.00 0.00 0.00 0.00 0.00 0.00 0.00 0.00 0.00 0.00 0.00 0.00 0.00 0.00 0.00 0.00 0.00 0.00 0.00 0.00 0.00 0.00 0.00 0.00 0.00 0.00 0.00 0.00 0.00 0.00 0.00 0.00 0.04 0.01 0.01 0.01 0.03 0.02 0.04 0.06 0.04 0.03 0.03
0.00 0.00 0.00 0.00 0.00 0.00 0.00 0.00 0.00 0.00 0.00 0.00 0.00 0.00 0.00 0.00 0.00 0.00 0.00 0.00 0.00 0.00 0.00 0.00 0.00 0.00 0.00 0.00 0.00 0.00 0.00 0.00 0.00 0.02 0.05 0.03 0.03 0.03 0.03 0.03 0.04 0.02 0.02 0.01
0.00 0.00 0.00 0.00 0.00 0.00 0.00 0.00 0.00 0.00 0.00 0.00 0.00 0.00 0.00 0.00 0.00 0.00 0.00 0.00 0.00 0.00 0.00 0.00 0.00 0.00 0.00 0.00 0.00 0.00 0.01 0.01 0.01 0.04 0.04 0.04 0.02 0.04 0.08 0.08 0.06 0.01 0.00 0.00
0.00 0.00 0.00 0.00 0.00 0.00 0.00 0.00 0.00 0.00 0.00 0.00 0.00 0.00 0.00 0.00 0.00 0.00 0.00 0.00 0.00 0.00 0.00 0.00 0.00 0.00 0.00 0.00 0.00 0.01 0.01 0.01 0.05 0.04 0.07 0.05 0.02 0.02 0.04 0.09 0.06 0.01 0.00 0.00
0.00 0.00 0.00 0.00 0.00 0.00 0.00 0.00 0.00 0.00 0.00 0.00 0.00 0.00 0.00 0.00 0.00 0.00 0.00 0.00 0.00 0.00 0.00 0.00 0.00 0.00 0.00 0.01 0.00 0.00 0.00 0.01 0.01 0.03 0.04 0.05 0.09 0.10 0.13 0.15 0.12 0.07 0.06 0.04
0.04 0.02 0.00 0.00 0.00 0.00 0.00 0.00 0.00 0.00 0.00 0.00 0.00 0.00 0.00 0.00 0.00 0.00 0.00 0.00 0.00 0.00 0.00 0.00 0.00 0.00 0.00 0.00 0.00 0.00 0.00 0.00 0.00 0.00 0.00 0.01 0.08 0.13 0.24 0.15 0.08 0.06 0.05 0.04
0.10 0.04 0.01 0.00 0.00 0.00 0.00 0.00 0.00 0.00 0.00 0.00 0.00 0.00 0.00 0.00 0.00 0.00 0.00 0.00 0.00 0.00 0.00 0.00 0.00 0.00 0.00 0.00 0.00 0.00 0.00 0.00 0.00 0.00 0.00 0.00 0.03 0.05 0.08 0.06 0.02 0.00 0.01 0.02
0.14 0.08 0.03 0.00 0.00 0.00 0.00 0.00 0.00 0.00 0.00 0.00 0.00 0.00 0.00 0.00 0.00 0.00 0.00 0.00 0.00 0.00 0.00 0.00 0.00 0.00 0.00 0.00 0.00 0.00 0.00 0.00 0.00 0.00 0.00 0.00 0.00 0.00 0.00 0.00 0.00 0.00 0.00 0.00
0.06 0.03 0.01 0.01 0.00 0.00 0.00 0.00 0.00 0.00 0.00 0.00 0.00 0.00 0.00 0.00 0.00 0.00 0.00 0.00 0.00 0.00 0.00 0.00 0.00 0.00 0.00 0.00 0.00 0.00 0.00 0.00 0.00 0.00 0.00 0.00 0.00 0.00 0.00 0.00 0.00 0.00 0.00 0.00
0.04 0.04 0.03 0.01 0.00 0.00 0.00 0.00 0.00 0.00 0.00 0.00 0.00 0.00 0.00 0.00 0.00 0.00 0.00 0.00 0.00 0.00 0.00 0.00 0.00 0.00 0.00 0.00 0.00 0.00 0.00 0.00 0.00 0.00 0.00 0.00 0.00 0.00 0.00 0.00 0.00 0.00 0.00 0.00
0.07 0.09 0.05 0.01 0.00 0.00 0.00 0.00 0.00 0.00 0.00 0.00 0.00 0.00 0.00 0.00 0.00 0.00 0.00 0.00 0.00 0.00 0.00 0.00 0.00 0.00 0.00 0.00 0.00 0.00 0.00 0.00 0.00 0.00 0.00 0.00 0.00 0.00 0.00 0.00 0.00 0.00 0.00 0.00
0.06 0.09 0.08 0.02 0.00 0.00 0.00 0.00 0.00 0.00 0.00 0.00 0.00 0.00 0.00 0.00 0.00 0.00 0.00 0.00 0.00 0.00 0.00 0.00 0.00 0.00 0.00 0.00 0.00 0.00 0.00 0.00 0.00 0.00 0.00 0.00 0.00 0.00 0.00 0.00 0.00 0.00 0.00 0.00
MSLP
1004.00 1003.50 1003.14 1002.83 1002.94 1003.60 1004.37 1004.54 1005.14 1004.39 1004.66 1002.79 1002.49 1002.04 1001.39 1001.46 1001.78 1002.01 1002.47 1002.95 1003.25 1003.50 1003.82 1004.23 1004.87 1005.11 1005.81 1006.40 1006.83 1007.32 1007.86 1008.13 1008.26 1008.74 1009.15 1009.49 1009.79 1010.05 1010.40 1010.77 1011.12 1011.47 1011.76 1012.04
1004.27 1003.62 1003.12 1002.77 1002.57 1002.90 1003.37 1003.67 1003.94 1003.89 1003.76 1002.75 1001.99 1001.70 1001.44 1001.17 1001.68 1001.76 1001.82 1001.96 1002.29 1002.90 1003.42 1003.69 1004.06 1004.58 1005.38 1006.00 1006.50 1007.11 1007.54 1007.66 1007.82 1008.20 1008.68 1009.05 1009.46 1009.85 1010.26 1010.66 1011.07 1011.49 1011.82 1012.17
1004.79 1003.86 1003.52 1003.36 1002.43 1002.37 1002.69 1002.96 1003.15 1003.32 1003.01 1002.79 1002.25 1001.87 1001.27 1001.05 1001.03 1000.84 1000.86 1001.03 1001.54 1001.91 1002.22 1002.94 1003.38 1003.68 1004.59 1005.37 1005.97 1006.54 1007.03 1007.32 1007.63 1007.92 1008.27 1008.67 1009.24 1009.95 1010.36 1010.84 1011.33 1011.79 1012.22 1012.55
1005.27 1004.62 1004.30 1002.64 1002.15 1002.14 1002.58 1002.99 1003.16 1003.16 1003.24 1002.99 1002.41 1001.47 1001.47 1000.94 1000.67 1000.42 1000.29 1000.53 1000.97 1001.44 1001.94 1002.30 1002.81 1003.37 1004.09 1004.81 1005.41 1005.98 1006.44 1006.80 1007.22 1007.85 1008.34 1008.80 1009.20 1009.74 1010.47 1011.13 1011.56 1012.01 1012.52 1012.93
1005.43 1005.17 1004.35 1003.14 1002.59 1002.71 1002.93 1003.24 1003.22 1003.32 1003.09 1002.47 1001.64 1001.31 1001.36 1001.12 1000.68 1000.10 1000.09 1000.26 1000.55 1000.81 1001.11 1001.74 1002.12 1002.72 1003.42 1004.35 1005.16 1005.69 1006.04 1006.43 1006.95 1007.69 1008.31 1008.84 1009.41 1009.74 1010.22 1010.83 1011.54 1012.15 1012.63 1013.09
1005.40 1005.18 1004.49 1003.13 1002.96 1003.14 1003.41 1003.57 1003.28 1003.51 1003.52 1003.16 1001.94 1002.35 1002.58 1001.88 1001.34 1000.50 999.85 1000.02 1000.16 1000.56 1001.07 1001.45 1001.92 1002.54 1003.31 1004.10 1004.54 1005.32 1005.69 1006.24 1006.83 1007.30 1007.94 1008.78 1009.36 1010.26 1010.36 1010.68 1011.15 1011.74 1012.55 1012.79
1005.57 1005.04 1004.14 1003.20 1003.08 1003.41 1004.10 1004.30 1003.82 1003.94 1004.01 1003.77 1003.64 1003.73 1002.98 1002.47 1001.79 1001.29 1000.81 1000.27 1000.38 1000.67 1000.97 1001.26 1001.91 1002.22 1003.07 1003.81 1004.10 1004.42 1005.67 1006.46 1006.95 1007.27 1008.23 1008.80 1009.36 1009.72 1010.52 1010.94 1011.64 1012.01 1012.34 1012.96
1005.87 1005.05 1004.35 1003.43 1003.75 1003.76 1003.61 1003.75 1003.86 1004.12 1004.36 1004.45 1004.29 1003.78 1003.61 1003.32 1002.59 1002.26 1001.96 1001.16 1001.12 1001.49 1001.71 1002.02 1002.60 1002.80 1002.99 1003.36 1004.30 1005.25 1005.91 1006.53 1007.40 1007.97 1008.54 1009.82 1009.92 1010.11 1010.34 1010.89 1011.69 1012.19 1012.60 1013.18
1005.14 1004.42 1003.77 1003.83 1003.86 1003.69 1003.77 1003.76 1003.73 1003.97 1004.20 1004.52 1004.66 1004.52 1004.28 1004.04 1003.59 1003.27 1003.01 1002.63 1001.98 1001.53 1001.77 1002.05 1003.71 1004.89 1004.30 1003.64 1004.23 1005.11 1005.84 1006.24 1006.48 1006.96 1006.23 1007.80 1010.12 1010.16 1010.00 1010.68 1011.34 1011.80 1012.40 1012.98
1004.99 1004.13 1003.43 1003.50 1004.21 1004.21 1004.04 1004.25 1003.80 1003.85 1004.14 1004.47 1004.66 1004.65 1004.58 1004.19 1003.81 1003.67 1003.57 1003.18 1002.50 1001.28 1000.95 999.83 1002.82 1005.18 1005.90 1003.37 1003.65 1004.47 1005.27 1005.78 1005.72 1005.37 1006.26 1006.85 1007.31 1008.21 1009.16 1009.99 1010.37 1011.03 1011.68 1012.19
1004.25 1003.78 1003.59 1003.71 1004.16 1004.43 1004.08 1004.16 1004.20 1003.82 1004.10 1004.41 1004.54 1004.53 1004.38 1004.14 1003.92 1003.60 1003.56 1003.30 1002.94 1002.31 1002.05 1002.51 1003.28 1002.91 1004.65 1003.54 1003.75 1004.40 1004.94 1005.38 1005.49 1005.47 1005.79 1006.24 1006.58 1007.79 1007.19 1007.48 1008.30 1009.71 1010.51 1011.47
1004.04 1003.60 1003.75 1004.12 1004.25 1004.42 1004.47 1004.42 1004.19 1004.14 1004.18 1004.33 1004.31 1004.36 1004.45 1004.23 1004.12 1003.98 1003.62 1002.93 1002.65 1002.32 1001.64 1001.15 1001.02 1002.57 1004.15 1004.78 1004.31 1004.15 1004.58 1004.75 1004.95 1005.23 1005.69 1006.40 1007.09 1007.78 1008.09 1007.69 1008.37 1008.83 1009.58 1010.48
1003.11 1003.22 1003.76 1004.03 1004.04 1004.28 1004.45 1004.51 1004.57 1004.65 1004.29 1004.63 1004.56 1004.47 1004.51 1004.54 1004.20 1003.81 1003.38 1003.70 1003.52 1003.45 1003.27 1002.48 1002.51 1003.78 1004.19 1005.06 1004.88 1004.28 1004.61 1004.77 1004.77 1005.30 1005.33 1005.84 1006.48 1007.22 1008.30 1009.02 1009.17 1008.70 1009.02 1010.12
1003.40 1003.75 1004.20 1004.26 1004.19 1004.25 1004.47 1004.40 1004.62 1004.74 1004.61 1004.83 1004.58 1004.81 1004.80 1004.79 1004.50 1004.39 1004.30 1004.17 1004.23 1004.46 1004.26 1003.41 1002.56 1004.37 1004.80 1004.90 1004.48 1004.25 1004.51 1004.53 1004.72 1005.20 1005.35 1005.85 1006.39 1007.18 1007.87 1008.60 1008.80 1009.32 1009.68 1009.94
1003.30 1003.67 1003.97 1004.16 1004.15 1004.44 1004.44 1004.47 1004.72 1004.97 1005.02 1005.31 1005.13 1005.56 1005.29 1005.12 1005.08 1004.99 1004.61 1004.61 1004.51 1004.67 1004.42 1004.21 1004.84 1005.09 1004.99 1004.47 1004.19 1004.19 1004.17 1004.41 1004.76 1004.95 1005.30 1005.59 1006.15 1006.59 1007.19 1007.56 1006.66 1007.84 1009.54 1009.69
1002.89 1003.58 1003.96 1004.06 1003.94 1004.24 1004.15 1004.30 1004.72 1005.13 1005.44 1005.79 1005.79 1005.76 1005.76 1005.76 1005.42 1005.13 1004.90 1005.55 1005.33 1005.58 1005.66 1005.37 1004.88 1004.43 1004.25 1004.19 1004.25 1004.25 1004.25 1004.35 1004.80 1004.96 1005.35 1005.76 1006.04 1006.70 1007.18 1007.07 1006.77 1006.90 1008.86 1009.22
1003.11 1003.85 1004.15 1004.23 1004.37 1004.24 1004.11 1004.36 1005.04 1005.35 1005.37 1005.70 1006.14 1006.18 1006.19 1006.03 1005.89 1005.90 1006.20 1006.38 1006.10 1006.18 1005.85 1005.31 1004.59 1004.20 1004.14 1003.93 1003.98 1004.17 1004.59 1004.93 1004.84 1005.15 1005.32 1005.54 1005.70 1006.20 1006.75 1007.00 1007.45 1007.71 1008.19 1008.70
1001.63 1002.01 1002.78 1002.99 1003.62 1004.00 1004.40 1004.83 1005.13 1005.49 1005.80 1006.02 1006.30 1006.22 1006.17 1006.24 1006.42 1006.56 1006.87 1006.59 1006.25 1006.04 1005.86 1005.28 1004.81 1004.36 1004.24 1004.08 1004.30 1004.49 1004.59 1004.92 1005.04 1005.29 1005.15 1005.25 1005.44 1006.40 1006.57 1006.88 1007.00 1007.36 1007.81 1008.44
1001.62 1001.85 1002.08 1002.77 1003.32 1003.92 1004.42 1004.92 1005.36 1005.67 1005.86 1006.05 1006.29 1006.60 1006.85 1006.83 1007.02 1007.17 1007.06 1006.80 1006.59 1006.39 1006.08 1005.59 1005.13 1004.78 1004.72 1004.42 1004.27 1004.58 1004.97 1004.92 1005.10 1005.11 1005.37 1005.21 1005.65 1006.22 1006.72 1006.87 1006.56 1006.81 1007.40 1008.19
1001.33 1001.89 1002.13 1002.83 1003.44 1004.02 1004.55 1004.91 1005.34 1005.79 1006.07 1006.42 1006.71 1006.92 1007.03 1007.07 1007.23 1007.46 1007.67 1007.67 1007.33 1006.95 1006.59 1006.15 1005.74 1005.53 1005.19 1004.99 1005.10 1005.13 1005.15 1005.23 1005.23 1005.12 1005.09 1005.26 1005.85 1005.94 1006.37 1006.47 1006.49 1006.97 1007.25 1007.67
1001.32 1001.85 1002.42 1002.90 1003.67 1004.22 1004.55 1004.93 1005.40 1005.89 1006.14 1006.30 1006.45 1006.74 1006.90 1006.90 1007.21 1007.32 1007.30 1007.26 1007.28 1006.90 1006.94 1006.75 1006.40 1005.71 1005.54 1005.42 1005.51 1005.85 1005.54 1005.78 1005.90 1005.26 1005.10 1005.61 1005.58 1005.77 1006.07 1006.25 1006.14 1006.52 1006.71 1006.65
1001.70 1002.10 1002.81 1003.15 1003.71 1004.40 1004.77 1005.20 1005.52 1005.88 1006.24 1006.47 1006.78 1007.05 1007.33 1007.64 1007.58 1007.33 1007.27 1007.23 1007.06 1007.24 1007.00 1006.74 1006.79 1006.18 1006.10 1006.11 1005.89 1005.60 1005.59 1005.94 1006.14 1005.88 1005.81 1005.97 1005.69 1005.83 1005.98 1005.67 1005.65 1005.75 1005.88 1006.21
1001.99 1002.55 1003.05 1003.51 1003.90 1004.44 1005.06 1005.37 1005.52 1005.69 1005.96 1006.25 1006.55 1006.82 1006.92 1007.01 1007.12 1007.16 1007.25 1007.16 1007.09 1006.95 1006.82 1006.75 1006.79 1006.58 1006.45 1006.35 1006.10 1006.04 1006.41 1006.59 1006.67 1006.44 1006.53 1006.47 1006.38 1006.23 1005.94 1005.81 1005.78 1005.80 1005.70 1005.79
1001.70 1002.54 1003.44 1003.83 1004.11 1004.67 1005.26 1005.41 1005.56 1005.88 1006.11 1006.34 1006.48 1006.68 1006.82 1006.99 1007.07 1006.97 1007.05 1006.98 1006.90 1007.05 1007.10 1007.14 1007.07 1006.97 1006.98 1006.93 1006.87 1006.94 1007.23 1007.34 1007.23 1007.02 1006.79 1006.59 1006.45 1006.29 1006.20 1006.14 1005.97 1005.89 1005.95 1006.04
1001.93 1002.96 1003.79 1004.27 1004.36 1004.69 1004.93 1005.25 1005.63 1006.06 1006.30 1006.49 1006.53 1006.47 1006.63 1006.74 1006.89 1007.09 1007.04 1007.06 1007.33 1007.54 1007.30 1007.21 1007.18 1007.15 1007.15 1007.20 1007.24 1007.19 1007.12 1007.01 1006.95 1006.86 1006.65 1006.47 1006.39 1006.29 1006.22 1006.21 1006.13 1006.08 1006.07 1006.10
1002.97 1003.63 1003.81 1003.70 1003.90 1004.37 1004.80 1005.26 1005.52 1005.81 1006.08 1006.36 1006.35 1006.34 1006.44 1006.51 1006.65 1006.79 1006.68 1006.74 1006.82 1006.81 1006.60 1006.72 1006.70 1006.63 1006.72 1006.79 1006.81 1006.75 1006.58 1006.52 1006.56 1006.43 1006.30 1006.17 1006.25 1006.30 1006.24 1006.19 1006.14 1006.12 1006.07 1006.03
1003.53 1003.85 1004.47 1004.13 1004.26 1004.61 1004.83 1005.00 1005.20 1005.50 1005.74 1006.03 1006.20 1006.23 1006.20 1006.26 1006.41 1006.53 1006.52 1006.52 1006.50 1006.39 1006.23 1006.13 1006.03 1006.07 1006.11 1006.25 1006.28 1006.27 1006.24 1006.21 1006.05 1005.98 1005.93 1005.89 1005.84 1005.76 1005.73 1005.73 1005.74 1005.76 1005.86 1005.91
Thickness
5752 5763 5772 5784 5784 5767 5767 5768 5762 5780 5767 5801 5809 5816 5830 5832 5835 5833 5830 5827 5826 5823 5820 5817 5810 5807 5800 5794 5790 5786 5780 5778 5776 5773 5770 5768 5767 5767 5764 5760 5758 5755 5753 5750
5747 5756 5766 5772 5781 5775 5778 5772 5774 5778 5775 5804 5815 5820 5825 5832 5829 5829 5831 5833 5831 5826 5821 5818 5816 5809 5801 5795 5790 5785 5781 5779 5778 5776 5773 5771 5768 5764 5761 5758 5756 5753 5751 5749
5729 5750 5752 5741 5768 5775 5780 5784 5787 5778 5793 5801 5808 5815 5821 5826 5830 5835 5838 5836 5832 5830 5828 5823 5819 5815 5803 5797 5793 5788 5783 5781 5779 5777 5774 5770 5765 5759 5756 5753 5750 5747 5744 5742
5717 5736 5715 5756 5777 5780 5776 5779 5782 5786 5790 5797 5805 5818 5820 5829 5832 5835 5839 5837 5835 5832 5827 5824 5820 5815 5807 5800 5795 5790 5786 5784 5781 5775 5770 5766 5762 5758 5752 5747 5744 5740 5736 5733
5710 5707 5733 5757 5770 5770 5770 5770 5780 5781 5788 5801 5812 5820 5818 5825 5830 5835 5836 5836 5835 5836 5831 5824 5820 5817 5810 5800 5793 5788 5784 5782 5779 5772 5766 5762 5757 5754 5750 5745 5738 5733 5730 5726
5707 5718 5709 5743 5765 5769 5769 5745 5780 5780 5780 5786 5802 5782 5790 5813 5820 5828 5836 5834 5833 5832 5826 5822 5818 5814 5807 5798 5794 5785 5782 5778 5774 5772 5766 5757 5752 5742 5743 5740 5736 5733 5725 5725
5707 5710 5724 5752 5763 5762 5737 5745 5769 5772 5772 5776 5779 5783 5797 5805 5813 5818 5822 5827 5827 5824 5820 5817 5812 5810 5802 5796 5791 5790 5780 5772 5768 5765 5757 5748 5741 5739 5732 5730 5725 5722 5721 5717
5697 5704 5719 5753 5751 5746 5754 5762 5766 5766 5765 5765 5770 5779 5783 5789 5797 5801 5805 5812 5813 5809 5805 5802 5798 5795 5794 5790 5782 5776 5770 5763 5755 5749 5743 5727 5726 5725 5726 5721 5715 5712 5710 5707
5715 5717 5738 5743 5746 5753 5754 5757 5762 5760 5761 5758 5759 5761 5767 5772 5779 5783 5785 5790 5796 5799 5796 5792 5778 5764 5767 5779 5775 5768 5760 5756 5756 5748 5750 5721 5710 5714 5709 5712 5707 5705 5703 5700
5717 5733 5736 5740 5738 5740 5747 5747 5756 5758 5756 5755 5754 5755 5757 5762 5767 5768 5771 5776 5782 5791 5791 5795 5760 5744 5741 5773 5772 5764 5756 5752 5752 5752 5742 5733 5732 5716 5705 5701 5705 5702 5700 5699
5712 5727 5730 5732 5730 5734 5741 5744 5745 5751 5750 5748 5748 5750 5753 5754 5756 5759 5759 5760 5763 5769 5770 5762 5743 5718 5735 5753 5757 5754 5751 5747 5746 5745 5740 5736 5734 5717 5717 5720 5718 5706 5701 5693
5701 5718 5718 5718 5720 5724 5726 5730 5735 5737 5739 5738 5739 5738 5739 5739 5739 5739 5742 5749 5753 5755 5757 5759 5761 5743 5728 5728 5743 5747 5742 5744 5743 5741 5736 5727 5721 5712 5710 5716 5710 5708 5703 5696
5713 5715 5710 5713 5717 5719 5718 5720 5722 5724 5730 5727 5729 5729 5726 5725 5728 5727 5728 5725 5724 5721 5720 5731 5735 5725 5728 5720 5726 5736 5732 5732 5735 5731 5733 5727 5719 5712 5703 5696 5692 5697 5699 5690
5705 5702 5701 5701 5703 5705 5707 5712 5714 5717 5717 5717 5719 5716 5715 5714 5717 5717 5715 5715 5710 5702 5696 5710 5725 5711 5713 5712 5722 5728 5726 5725 5728 5724 5723 5717 5710 5701 5694 5686 5687 5687 5681 5680
5698 5696 5696 5695 5697 5696 5698 5700 5702 5701 5702 5701 5703 5699 5702 5704 5703 5703 5707 5705 5705 5700 5702 5705 5701 5701 5701 5708 5715 5716 5718 5718 5717 5716 5712 5708 5700 5692 5687 5674 5684 5680 5668 5668
5692 5689 5688 5690 5693 5693 5694 5695 5692 5689 5688 5686 5686 5687 5689 5691 5695 5699 5701 5695 5696 5689 5686 5688 5693 5699 5703 5704 5705 5707 5708 5708 5703 5702 5699 5695 5689 5679 5674 5670 5668 5670 5665 5665
5679 5674 5673 5676 5679 5684 5688 5688 5682 5681 5683 5680 5674 5675 5678 5681 5684 5686 5682 5679 5681 5679 5681 5687 5695 5699 5698 5700 5701 5700 5696 5692 5695 5692 5690 5687 5685 5676 5667 5666 5664 5660 5661 5657
5689 5685 5682 5685 5681 5680 5678 5677 5676 5676 5673 5672 5671 5672 5674 5676 5676 5673 5668 5671 5673 5674 5677 5682 5686 5690 5691 5693 5690 5688 5688 5685 5684 5680 5682 5682 5681 5668 5663 5659 5661 5657 5654 5646
5684 5681 5683 5681 5677 5675 5673 5671 5669 5669 5670 5669 5668 5667 5665 5665 5664 5664 5665 5668 5669 5669 5672 5675 5679 5682 5681 5684 5686 5682 5679 5680 5678 5678 5674 5676 5669 5661 5655 5652 5657 5655 5650 5641
5681 5677 5676 5672 5671 5668 5667 5667 5665 5662 5662 5662 5660 5659 5659 5658 5657 5655 5652 5652 5656 5660 5662 5666 5668 5669 5672 5673 5671 5670 5671 5670 5669 5669 5669 5666 5657 5655 5650 5647 5648 5644 5641 5636
5674 5672 5669 5666 5662 5662 5664 5663 5660 5656 5656 5657 5657 5657 5657 5656 5653 5651 5651 5652 5652 5654 5653 5654 5657 5662 5663 5664 5662 5657 5658 5656 5654 5657 5659 5654 5651 5648 5645 5642 5643 5639 5636 5636
5666 5666 5661 5661 5659 5656 5655 5654 5653 5651 5649 5647 5646 5645 5643 5641 5643 5646 5647 5648 5648 5646 5647 5648 5648 5652 5652 5651 5652 5654 5653 5648 5644 5642 5640 5639 5641 5638 5636 5637 5636 5635 5634 5630
5658 5655 5654 5653 5652 5651 5647 5647 5649 5649 5647 5646 5644 5642 5642 5641 5639 5640 5640 5642 5642 5642 5643 5643 5642 5641 5641 5641 5641 5640 5635 5631 5628 5626 5623 5622 5622 5623 5624 5625 5624 5623 5622 5620
5654 5649 5645 5644 5644 5642 5640 5642 5642 5641 5641 5640 5640 5638 5638 5637 5637 5637 5636 5636 5636 5633 5632 5629 5627 5625 5622 5622 5621 5618 5613 5610 5609 5609 5610 5609 5611 5611 5610 5609 5610 5609 5606 5604
5644 5637 5633 5634 5637 5638 5639 5638 5637 5634 5634 5633 5634 5635 5634 5632 5632 5629 5628 5626 5622 5619 5620 5618 5617 5615 5613 5611 5608 5606 5606 5605 5604 5603 5603 5603 5601 5600 5599 5598 5596 5594 5593 5591
5629 5626 5629 5636 5638 5636 5635 5634 5634 5632 5631 5629 5631 5631 5631 5629 5626 5624 5623 5621 5620 5618 5618 5616 5615 5613 5610 5607 5605 5603 5603 5601 5597 5595 5595 5594 5591 5589 5587 5586 5584 5582 5580 5578
5620 5621 5620 5628 5631 5631 5632 5632 5632 5630 5628 5628 5627 5627 5627 5626 5623 5620 5619 5619 5617 5616 5614 5613 5612 5609 5606 5602 5599 5597 5595 5593 5592 5591 5588 5586 5584 5582 5580 5578 5576 5573 5570 5567